Regional Weather Roundup
Issued by NWS

Home | Current Version | Previous Version | Text Only | Print | Product List | Glossary On
Versions: 1 2 3 4 5 6 7 8 9 10 11 12 13 14 15 16 17 18 19 20 21 22 23 24 25 26 27 28 29 30 31 32 33 34 35 36 37 38 39 40 41 42 43 44 45 46 47 48 49 50
000
ASUS46 KSTO 250315
RWRCA

NORTHERN AND CENTRAL CA REGIONAL WEATHER ROUNDUP
NATIONAL WEATHER SERVICE SACRAMENTO CA
800 PM PDT MON APR 24 2017

NOTE: FAIR INDICATES FEW OR NO CLOUDS BELOW 12,000 FEET WITH NO
SIGNIFICANT WEATHER AND/OR OBSTRUCTIONS TO VISIBILITY.

CAZ001-003-250400-
NORTHWEST AREA

CITY           SKY/WX    TMP DP  RH WIND       PRES   REMARKS
CRESCENT CITY  MOCLDY    50  47  89 W6        30.06R
UKIAH          PTCLDY    53  45  74 NW7       30.04S
$$

CAZ006-505>513-250400-
BAY AREA

CITY           SKY/WX    TMP DP  RH WIND       PRES   REMARKS
SANTA ROSA     MOCLDY    57  48  72 W9        30.01S
SAN RAFAEL     N/A       56  MM  MM MISG
NAPA           MOCLDY    58  49  72 W21       30.01S
CONCORD        CLOUDY    58  49  72 W12       30.03S
OAKLAND CITY   N/A      MM  MM  MM MISG
OAKLAND        CLOUDY    59  50  72 W25       30.05S
SAN FRAN CITY  N/A       55  MM  77 MISG
SAN FRAN ARPT  MOCLDY    56  49  77 W24       30.05S
LIVERMORE      CLOUDY    56  49  77 W12       30.03F
HAYWARD        CLOUDY    58  46  64 MISG      30.05S
REDWOOD CITY   N/A       57  MM  75 MISG
MOFFETT ARPT   CLOUDY    58  49  72 W8        30.07R
SAN JOSE ARPT  MOCLDY    59  48  67 W9        30.06S
$$
CAZ034-037-514>518-250400-
CENTRAL COAST

CITY           SKY/WX    TMP DP  RH WIND       PRES   REMARKS
WATSONVILLE    MOCLDY    56  55  97 CALM      30.07R FOG
SALINAS        CLOUDY    58  53  84 W13       30.07R
MONTEREY       CLOUDY    57  52  83 W7        30.08F
SAN LUIS OBISP PTCLDY    56  50  80 NW16G26   29.98S
SANTA MARIA    PTCLDY    54  51  90 NW21G28   29.98R
$$
CAZ015-016-250400-
NORTHERN SACRAMENTO VALLEY

CITY           SKY/WX    TMP DP  RH WIND       PRES   REMARKS
REDDING        MOCLDY    59  43  55 W6        29.92R
RED BLUFF      MOCLDY    63  38  39 NW10      29.94R
OROVILLE       CLOUDY    62  51  67 S13       29.95F
$$
CAZ016>018-250400-
SOUTHERN SACRAMENTO VALLEY

CITY           SKY/WX    TMP DP  RH WIND       PRES   REMARKS
AUBURN         CLOUDY    55  52  88 S20G31    30.00S
BEALE AFB      CLOUDY    61  53  76 S13       29.95S
LINCOLN        FAIR      59  50  72 S10       29.97S
MARYSVILLE     CLOUDY    61  52  72 S9        29.97R
SAC INTL ARPT  CLOUDY    59  53  80 S10       29.96F
MATHER AIRPORT MOCLDY    57  50  77 S8        30.00S
DOWNTOWN SAC   N/A       59  MM  MM MISG
SAC EXEC ARPT  CLOUDY    58  52  80 SW12      29.99S
VACAVILLE      CLOUDY    59  51  75 VRB3      30.00S
TRAVIS AFB     CLOUDY    56  50  78 SW14      29.99S
$$
CAZ019>021-250400-
SAN JOAQUIN VALLEY

CITY           SKY/WX    TMP DP  RH WIND       PRES   REMARKS
STOCKTON       CLOUDY    60  51  72 W12       30.01F
MODESTO        CLOUDY    62  50  64 NW14      30.01S
MERCED         CLOUDY    61  48  62 NW13      30.00R
LEMOORE        MOCLDY    63  45  51 NW18      29.98R
FRESNO         CLOUDY    62  48  60 NW20G26   29.97R
HANFORD        MOCLDY    63  49  60 NW16      29.96R
PORTERVILLE      N/A     63  46  54 N12       29.95R
BAKERSFIELD    PTCLDY    66  46  48 N17       29.93R
$$
CAZ011-012-071-250400-
NORTHERN MOUNTAINS

CITY           SKY/WX    TMP DP  RH WIND       PRES   REMARKS
YREKA          CLOUDY    47  36  65 NW5       29.95R
MOUNT SHASTA   CLOUDY    48  30  49 VRB6      29.91R
ALTURAS        LGT RAIN  41  38  89 W9        29.88S
$$
CAZ011-012-071-250400-
SIERRA NEVADA MTNS

CITY           SKY/WX    TMP DP  RH WIND       PRES   REMARKS
BLUE CANYON    LGT RAIN  38  38 100 SW10G18   30.00S VSB 3/4 WCI  31
TRUCKEE        RAIN      36  32  87 CALM      29.95F
TAHOE VLY ARPT CLOUDY    38  31  76 S13       29.98R WCI  30
MAMMOTH LAKES  CLOUDY    46  17  31 W22G38    29.93R
$$




USA.gov is the U.S. government's official web portal to all federal, state and local government web resources and services.